Wind_Speed
25 25 26 27 29 30 31 32 32 33 33 34 35 36 37 38 37 37 36 37 38 38 38 38 38 39 40 40 41 41 42 44 45 45 46 46 46 46 47 47 48 48 47 46
23 24 25 27 28 29 30 31 31 33 33 33 35 36 36 37 37 37 37 37 38 38 38 38 39 39 40 40 41 41 42 43 44 44 45 45 45 46 46 47 48 48 48 47
24 23 23 25 26 28 29 30 31 31 32 32 34 34 34 36 36 37 37 37 37 38 38 38 38 39 40 40 41 41 42 43 43 44 44 44 44 45 46 46 47 48 48 49
24 23 23 24 25 26 28 28 29 30 31 32 32 34 31 33 34 35 36 36 36 37 37 38 38 39 40 40 41 41 41 42 44 44 44 44 43 44 44 45 46 47 48 48
23 24 24 25 24 25 26 27 28 30 31 32 32 34 31 32 33 33 35 35 35 35 35 36 38 39 40 40 40 41 41 42 43 43 44 44 44 44 44 44 44 46 47 48
23 24 24 25 25 25 26 27 28 29 30 32 30 32 32 31 32 33 33 33 34 34 34 35 37 38 39 39 39 40 41 41 41 42 42 43 43 44 44 43 43 44 45 47
23 24 24 25 25 25 25 25 27 28 29 30 29 31 31 30 31 31 32 32 32 32 33 34 35 36 37 38 38 38 39 39 39 41 41 42 43 43 43 43 43 43 43 44
25 24 24 24 24 24 24 24 25 27 28 28 28 30 30 29 30 31 31 32 32 32 32 32 34 35 36 37 37 37 37 37 38 39 40 41 41 41 41 41 42 42 42 43
25 25 25 25 24 24 23 23 24 25 26 27 28 29 29 28 29 29 30 31 31 32 32 32 33 34 35 36 36 36 37 37 38 39 39 39 40 41 41 41 41 41 42 42
23 24 23 23 23 23 22 22 23 24 25 27 27 28 28 27 27 28 29 29 29 31 32 33 33 34 34 35 35 35 36 36 37 37 38 39 39 40 40 40 40 40 40 39
22 23 22 22 22 22 22 22 23 24 25 26 27 27 27 27 27 27 28 28 29 30 31 31 31 31 33 33 33 33 35 35 35 35 36 36 37 39 39 39 39 39 39 39
22 23 23 22 22 23 23 24 24 25 26 27 28 28 27 27 27 27 27 28 29 29 29 29 29 29 30 31 31 32 32 33 33 33 34 35 36 37 37 38 38 38 38 38
21 22 23 22 23 23 24 24 25 26 26 26 27 27 27 27 27 27 27 27 28 28 28 29 29 28 29 30 30 31 31 31 32 32 33 33 34 35 36 37 37 37 37 37
22 22 22 22 23 24 24 24 24 26 27 27 27 27 26 27 27 27 27 27 27 27 27 27 27 28 28 29 29 30 30 31 32 33 33 34 34 35 35 36 36 36 36 36
21 22 22 23 23 23 24 24 24 25 27 28 27 28 27 27 27 26 26 27 27 27 27 27 27 28 28 28 28 29 30 31 32 32 33 33 34 34 35 35 35 36 36 36
22 22 23 23 23 24 24 24 24 25 25 26 27 26 25 26 26 26 26 26 26 27 27 27 28 28 28 27 28 28 29 30 31 31 32 33 33 34 34 35 35 35 35 36
23 24 24 23 23 24 24 23 23 24 24 25 26 25 24 24 25 25 25 26 26 26 27 27 27 28 28 28 27 28 28 29 30 30 30 31 32 32 33 34 34 34 34 35
23 24 25 24 24 25 22 22 23 23 23 24 24 23 23 24 24 25 26 26 25 26 27 28 28 28 27 27 28 28 28 28 28 29 30 30 30 31 32 32 32 32 33 33
23 24 25 26 26 25 22 23 23 24 23 22 23 23 24 24 24 24 25 25 26 26 27 27 27 28 28 27 27 28 28 28 28 28 29 29 30 30 31 31 31 31 31 32
23 24 25 26 26 26 23 23 23 24 22 21 22 23 23 24 24 24 24 25 26 26 26 26 26 26 27 27 27 27 27 27 27 28 29 29 29 29 29 30 30 29 29 29
24 25 25 26 27 26 24 24 25 25 23 22 23 24 24 24 25 25 25 25 26 26 26 26 25 26 26 26 26 26 26 26 27 27 28 28 28 28 28 28 28 28 28 28
26 26 26 26 27 26 25 25 25 26 25 25 24 24 25 25 25 24 24 25 26 25 25 25 25 25 25 26 26 26 26 26 27 27 27 27 27 27 27 27 27 27 27 27
27 27 27 28 27 26 26 27 27 27 26 26 25 25 25 25 25 25 25 25 25 25 24 24 25 25 25 25 26 26 26 26 26 26 26 26 25 25 25 25 25 25 25 26
27 27 28 28 26 26 26 26 27 27 27 26 26 26 26 25 25 25 25 25 25 25 25 25 24 24 25 25 25 25 25 25 25 25 25 24 24 23 23 24 24 24 24 24
28 28 28 27 26 26 26 27 27 27 27 26 26 26 26 25 25 24 24 24 24 25 26 26 25 24 25 25 24 24 24 24 23 23 22 22 22 22 21 22 23 23 23 22
29 29 29 28 27 27 26 26 26 26 26 26 25 24 24 25 24 24 24 24 24 25 26 25 25 24 24 24 23 23 23 23 22 21 21 21 20 20 20 21 21 21 21 21
Wind_Direction
271 269 269 269 267 267 265 264 264 264 264 262 261 260 260 260 262 263 263 263 261 261 260 260 260 260 259 258 259 259 258 257 258 259 258 258 260 260 259 259 258 259 260 261
273 271 270 270 270 269 268 267 267 265 265 265 264 262 261 261 261 263 264 263 263 262 261 261 260 261 260 260 260 259 259 257 258 260 259 259 260 260 260 259 259 259 260 261
275 274 272 271 272 271 270 269 270 269 268 268 267 265 263 262 263 264 264 264 264 263 263 262 261 261 260 259 260 259 260 259 259 260 260 260 261 261 261 261 260 260 260 261
277 276 274 274 275 275 272 272 271 270 269 269 269 269 265 265 265 264 265 266 265 264 264 264 262 262 261 261 261 261 261 261 261 260 261 262 262 263 263 262 262 261 261 262
279 277 276 276 277 277 276 275 272 272 271 270 269 271 269 268 267 266 266 266 266 266 266 265 264 262 262 262 263 263 263 264 262 261 261 262 263 263 264 264 264 263 262 263
280 278 278 278 278 278 279 277 274 272 271 271 271 273 273 271 271 268 267 266 265 267 267 266 266 263 263 264 264 264 265 264 263 262 262 263 262 263 263 264 266 266 265 264
282 279 279 279 280 279 279 278 276 275 275 275 275 275 276 274 273 271 268 266 265 266 266 266 266 265 265 265 265 266 265 264 264 263 262 262 262 262 263 264 265 266 266 265
285 281 279 280 281 282 280 278 277 278 279 280 278 278 279 277 276 274 271 268 266 266 267 267 267 267 266 267 267 268 267 266 264 263 263 262 261 262 263 265 265 266 266 266
288 284 281 280 280 282 281 279 278 277 279 280 280 282 281 281 280 276 274 271 268 266 267 269 268 267 267 268 269 268 268 267 265 265 264 263 262 263 263 264 265 266 266 266
290 287 284 281 281 281 281 282 280 278 280 283 283 283 284 282 282 279 277 274 272 269 267 269 270 269 268 270 271 269 269 267 266 265 264 264 263 262 262 264 265 267 267 267
291 288 287 284 283 282 281 281 281 280 279 283 286 285 286 285 284 281 278 276 275 273 271 271 271 271 270 270 271 270 269 267 266 266 266 265 265 264 263 263 265 266 267 268
292 289 288 288 285 284 282 282 281 282 282 282 284 286 287 287 285 283 280 278 277 275 272 272 273 273 272 271 271 270 268 267 267 267 267 266 265 264 264 264 265 266 267 268
292 289 289 289 287 285 284 284 283 282 282 282 283 286 288 286 284 282 281 278 278 277 274 273 274 274 273 272 271 269 268 267 267 268 268 267 266 265 265 265 266 266 268 269
291 289 288 289 289 286 285 284 283 282 283 284 283 285 286 286 284 282 280 279 279 277 276 275 276 276 274 273 271 269 269 269 269 269 269 268 267 267 267 267 267 267 268 269
292 290 289 289 288 285 285 284 284 283 284 284 284 284 286 286 285 283 281 280 279 279 278 277 277 278 277 275 273 270 269 269 270 270 269 268 269 268 268 267 267 267 268 269
291 291 290 290 291 288 284 283 284 285 285 285 285 285 286 283 284 283 283 282 280 279 279 279 278 278 277 276 275 272 271 270 269 269 268 268 269 269 269 269 268 267 268 269
291 292 291 291 292 289 286 287 287 288 287 287 287 288 286 283 283 283 283 283 282 281 281 280 279 279 280 278 277 274 272 271 270 269 270 269 269 269 269 269 268 267 268 270
291 292 292 292 291 289 292 288 288 288 288 287 287 287 286 286 285 285 285 285 284 283 282 281 280 279 280 280 279 276 272 272 271 269 269 270 270 270 270 269 268 268 270 270
291 293 293 292 291 291 291 290 290 290 289 288 286 285 286 286 287 287 286 285 286 285 284 284 283 281 280 280 280 278 274 273 273 272 271 271 272 272 271 269 269 271 271 272
291 292 292 292 291 291 294 293 292 290 290 290 288 286 286 287 287 288 287 287 287 288 288 287 286 283 282 282 281 279 278 276 275 275 274 274 275 275 273 271 271 271 272 273
287 289 291 291 290 292 293 292 291 291 292 292 291 288 286 287 288 288 287 288 289 290 291 289 287 284 283 283 281 281 280 280 278 277 277 277 277 276 275 273 272 272 273 275
286 288 289 290 289 293 292 289 289 290 290 290 290 290 287 287 289 289 288 288 289 291 293 292 288 285 284 283 283 283 283 283 282 280 280 279 278 277 274 274 273 274 275 276
284 285 287 287 289 291 289 288 287 287 288 287 288 289 288 287 288 289 288 287 289 291 293 293 290 287 286 285 285 285 284 285 285 283 282 281 281 278 275 273 273 275 276 276
284 284 284 284 287 287 287 288 286 286 287 288 285 285 287 288 287 288 287 288 289 291 293 294 291 288 288 287 286 286 285 286 287 286 283 282 280 279 277 274 274 275 276 277
286 284 283 284 286 285 285 286 286 287 288 288 286 284 285 286 286 286 287 289 290 292 293 294 292 289 289 289 288 286 285 286 287 286 284 283 281 279 278 276 275 275 275 275
283 284 284 282 282 282 283 284 286 286 286 286 285 285 285 284 283 284 286 288 290 292 294 294 292 291 292 291 288 286 286 287 287 286 284 282 280 280 280 280 278 275 274 274
Height
5668 5669 5669 5669 5669 5669 5669 5669 5670 5671 5671 5671 5672 5674 5676 5677 5678 5679 5680 5681 5682 5683 5684 5685 5686 5688 5689 5690 5691 5693 5694 5695 5695 5696 5697 5699 5700 5702 5703 5704 5706 5707 5708 5710
5663 5663 5663 5662 5662 5662 5662 5662 5662 5663 5663 5663 5664 5665 5667 5668 5669 5670 5671 5672 5672 5673 5674 5676 5677 5678 5679 5680 5681 5682 5683 5684 5684 5685 5686 5687 5689 5690 5691 5692 5694 5695 5697 5698
5656 5658 5656 5656 5655 5655 5655 5655 5655 5655 5655 5655 5656 5657 5659 5660 5660 5661 5662 5663 5663 5664 5665 5666 5666 5668 5669 5670 5670 5671 5672 5673 5674 5674 5675 5676 5677 5678 5679 5681 5682 5683 5684 5686
5650 5651 5650 5650 5649 5648 5648 5648 5647 5647 5647 5648 5648 5648 5652 5652 5652 5653 5654 5654 5654 5655 5655 5656 5657 5658 5659 5660 5660 5661 5661 5662 5662 5663 5664 5665 5666 5667 5668 5669 5670 5671 5672 5673
5645 5645 5644 5644 5644 5642 5642 5641 5641 5640 5639 5640 5641 5640 5644 5643 5644 5644 5645 5645 5645 5646 5646 5646 5647 5648 5649 5649 5650 5650 5651 5651 5651 5651 5652 5653 5654 5656 5657 5658 5659 5659 5660 5661
5639 5639 5638 5637 5637 5636 5635 5635 5634 5632 5632 5633 5635 5633 5634 5635 5636 5636 5636 5636 5636 5637 5637 5637 5637 5638 5639 5639 5639 5640 5640 5640 5640 5641 5642 5642 5643 5644 5646 5647 5648 5648 5649 5650
5634 5633 5632 5631 5631 5630 5629 5629 5627 5626 5625 5626 5627 5625 5627 5628 5628 5627 5628 5628 5628 5628 5628 5628 5628 5629 5629 5629 5630 5630 5629 5630 5630 5630 5631 5631 5632 5633 5635 5636 5637 5637 5638 5638
5627 5627 5626 5625 5624 5624 5623 5622 5622 5620 5619 5620 5619 5618 5621 5620 5620 5619 5619 5619 5619 5619 5619 5619 5619 5619 5619 5619 5620 5620 5619 5619 5620 5620 5620 5621 5622 5623 5624 5625 5626 5626 5627 5627
5620 5620 5620 5619 5618 5618 5616 5616 5616 5615 5613 5612 5612 5613 5613 5612 5611 5611 5611 5610 5610 5610 5610 5610 5610 5610 5610 5610 5610 5610 5610 5609 5610 5610 5610 5611 5612 5613 5614 5614 5615 5616 5616 5616
5614 5614 5614 5613 5613 5612 5611 5610 5610 5608 5607 5606 5606 5606 5606 5605 5604 5603 5602 5602 5601 5602 5602 5601 5601 5601 5601 5600 5600 5600 5600 5600 5600 5600 5600 5601 5601 5602 5603 5604 5605 5605 5606 5605
5609 5608 5608 5608 5607 5606 5606 5605 5604 5603 5602 5600 5599 5602 5599 5598 5597 5596 5595 5594 5593 5593 5593 5592 5592 5592 5592 5591 5591 5590 5590 5590 5590 5590 5591 5591 5592 5592 5593 5594 5595 5595 5595 5595
5604 5603 5602 5602 5602 5600 5600 5599 5598 5598 5596 5595 5593 5597 5593 5591 5590 5588 5587 5586 5585 5585 5584 5584 5584 5583 5583 5583 5582 5581 5581 5581 5581 5581 5582 5582 5582 5583 5584 5584 5585 5585 5586 5586
5599 5598 5597 5596 5597 5595 5594 5593 5592 5591 5590 5588 5587 5590 5586 5585 5583 5581 5580 5579 5578 5577 5576 5576 5576 5575 5575 5574 5573 5573 5572 5572 5572 5572 5573 5573 5573 5574 5574 5575 5575 5576 5576 5576
5592 5592 5592 5591 5589 5588 5587 5587 5585 5584 5583 5582 5582 5581 5580 5578 5576 5574 5573 5572 5570 5570 5569 5568 5568 5567 5566 5565 5565 5564 5564 5564 5564 5564 5564 5564 5564 5564 5565 5565 5566 5566 5566 5566
5587 5586 5585 5584 5583 5582 5581 5580 5579 5578 5577 5575 5575 5574 5573 5571 5569 5567 5566 5564 5563 5562 5562 5561 5560 5559 5558 5557 5557 5556 5556 5555 5555 5555 5555 5555 5555 5555 5555 5555 5556 5556 5556 5556
5581 5581 5579 5579 5578 5576 5574 5574 5573 5572 5570 5568 5567 5567 5566 5564 5562 5560 5559 5557 5556 5555 5554 5553 5552 5551 5550 5549 5549 5548 5547 5547 5546 5546 5545 5545 5545 5545 5546 5546 5546 5546 5546 5546
5576 5575 5573 5572 5571 5569 5568 5569 5567 5566 5564 5562 5560 5561 5559 5556 5555 5553 5552 5551 5549 5548 5547 5546 5545 5544 5543 5542 5541 5540 5539 5538 5538 5537 5537 5536 5536 5536 5536 5536 5536 5536 5536 5536
5571 5569 5567 5565 5565 5563 5566 5562 5561 5559 5558 5556 5554 5553 5551 5550 5548 5547 5545 5544 5543 5542 5540 5539 5538 5537 5535 5534 5533 5532 5531 5530 5530 5529 5529 5529 5528 5528 5527 5527 5527 5527 5527 5527
5565 5563 5561 5559 5557 5556 5558 5556 5554 5552 5552 5550 5548 5546 5545 5543 5542 5541 5539 5538 5536 5535 5533 5532 5530 5529 5528 5527 5525 5524 5523 5523 5522 5521 5521 5520 5520 5519 5519 5518 5518 5518 5518 5518
5559 5557 5555 5552 5550 5549 5552 5550 5547 5546 5545 5544 5541 5540 5538 5537 5536 5536 5533 5531 5529 5528 5526 5524 5523 5522 5521 5519 5518 5517 5516 5515 5514 5513 5513 5512 5512 5511 5510 5510 5510 5509 5509 5509
5552 5550 5549 5546 5543 5543 5545 5543 5541 5540 5540 5537 5535 5533 5531 5530 5529 5528 5526 5524 5522 5521 5519 5517 5516 5515 5513 5512 5511 5510 5508 5507 5506 5505 5505 5504 5503 5502 5502 5501 5501 5501 5500 5500
5545 5543 5542 5540 5537 5539 5538 5536 5534 5533 5531 5529 5527 5526 5524 5523 5521 5520 5519 5517 5515 5514 5512 5510 5509 5507 5506 5504 5503 5502 5501 5500 5499 5498 5497 5496 5495 5494 5494 5493 5493 5492 5492 5491
5537 5537 5535 5534 5534 5532 5530 5528 5527 5525 5524 5522 5520 5519 5517 5516 5515 5513 5512 5510 5508 5507 5505 5503 5501 5500 5498 5497 5496 5495 5493 5492 5491 5490 5489 5488 5487 5487 5486 5485 5485 5484 5484 5483
5530 5529 5527 5526 5526 5525 5523 5521 5519 5517 5516 5515 5513 5512 5510 5509 5508 5506 5505 5503 5502 5500 5498 5496 5494 5493 5491 5489 5488 5487 5486 5485 5483 5482 5481 5480 5479 5479 5478 5478 5477 5477 5477 5476
5522 5521 5519 5518 5518 5517 5516 5514 5512 5510 5509 5507 5506 5504 5503 5502 5500 5499 5498 5496 5495 5493 5491 5489 5487 5486 5484 5482 5481 5479 5478 5477 5476 5475 5474 5473 5472 5472 5471 5471 5470 5470 5469 5468
5515 5513 5512 5511 5511 5508 5508 5506 5504 5503 5501 5500 5498 5497 5496 5494 5493 5492 5491 5490 5488 5486 5484 5482 5480 5479 5477 5475 5474 5472 5471 5470 5469 5468 5467 5467 5466 5465 5465 5464 5463 5462 5462 5461